Location: Unspecified
(0.0000°N, 0.0000°E)
Time: 06:15:40
(UTC+00:00)

Vanguard 2 - Pass Details

Date: 16 September 2019
Orbit: 554 x 2937 km, 32.9° (Epoch: 14 October)

Event Time Altitude Azimuth Distance (km) Brightness Sun altitude
Rises 01:25:31 0° 241° (WSW) 6,791 - -67.2°
Reaches altitude 10° 01:30:14 10° 243° (WSW) 5,715 - -66.1°
Maximum altitude 01:47:10 66° 322° (NW) 2,498 - -61.9°
Exits shadow 01:56:59 16° 41° (NE) 3,605 11.1 -59.4°
Drops below altitude 10° 01:58:27 10° 43° (NE) 3,963 11.4 -59.1°
Sets 02:01:07 0° 46° (NE) 4,675 11.9 -58.4°
